Погода Большой Улуй

Погода Большой Улуй : погода сейчас, прогноз погоды и архив. Всё, что Вы хотите узнать о погоде Большой Улуй!

Поиск расширенной информации на нашем сайте:

Другие новости

Новости СМИ2

Главная страница сайта

Новости сайта

03.07.2017

Напоминаем, что на нашем специализированном сайте Метеоцентр.Азия вы можете получить высокодетализированные автоматические прогнозы погоды по пунктам России, СНГ и мира в авиационном формате (включающие направление и скорость ветра, видимость, явления погоды, количество и форму облачности, нижнюю и верхнюю границу облачности).

Рекомендуем: Камень натуральный облицовочный купить камни природные природный камень.

Погода Большой Улуй - сегодня

Время (UTC), дата Ветер
(°,м/с) 
Видим.   Явления Облачность Т
(°С)
Тd
(°С)
f(%) Тe
(°С)
Pmin
(гПа)
dP
(гПа)
Po
(мм)
O2
(г/м3)
Тmin Tmax R s Состояние
почвы
03 19.10.17 140 (ЮВ) 20000 м    10/10 600 м 
[Sc]
+1.6 +0.4 92 1019.5  1.7  743  298  +1.3         
06 19.10.17 120 (ЮВ) 20000 м    10/10 600 м 
[Sc]
+2.9 +1 87 +2  1018.2  -1.1  742  296           
09 19.10.17 120 (ЮВ) 20000 м    10/10 600 м 
[Sc]
+3.2 +1 85 +3  1018.6  0.4  743  296           
12 19.10.17 140 (ЮВ) н/о    10/10 600 м 
[Sc]
+3.1 +1.2 87 +2  1018.9  0.3  743  296    +3.5       
15 19.10.17 170 (Ю) н/о    10/10 600 м 
[Sc]
+2.6 +1.2 90 +1  1019.4  0.4  743  296           
18 19.10.17 180 (Ю) н/о  слаб. ливневой дождь  10/10 600 м кучево-дожд. 
[Cb cap]
+3 +2 93 +2  1019.2  -0.1  743  296           
21 19.10.17 170 (Ю) н/о  дымка{ливн. осадки}  10/10 600 м кучево-дожд. 
[Cb cap]
+3 +2.8 99 +2  1018.7  -0.5  743  296           
00 20.10.17 150 (ЮВ) н/о  дымка{ливн. осадки}  8/3 600 м кучево-дожд., верхняя 
[Cb cap|Ci fib]
+2.8 +2.6 99 +1  1017.4  -1.3  742  295  +2.5    0.5    влажная 
03 20.10.17 160 (Ю) 20000 м    9/9 600 м кучево-дожд. 
[Cb cap]
+4.3 +3.6 95 +3  1016.2  -1  741  293           
06 20.10.17 160 (Ю) 20000 м    10/10 600 м 
[Sc]
+6.8 +4.5 85 +6  1015  -0.9  740  290           
09 20.10.17 200 (Ю) 20000 м    10/10 600 м 
[Sc]
+7.6 +3.8 77 +7  1014.7  -0.3  740  289           
12 20.10.17 170 (Ю) н/о  в посл. час ливневой дождь  10/10 600 м кучево-дожд. 
[Cb cap]
+6.3 +3.7 83 +5  1014.3  -0.5  740  291    +8.1  0.0     
15 20.10.17 190 (Ю) н/о    10/10 600 м 
[Sc]
+5.4 +3.1 85 +4  1013.4  -0.9  739  291           
18 20.10.17 190 (Ю) н/о    8/8 600 м 
[Sc]
+5 +0.9 75 +3  1012.1  -1.3  738  292           
21 20.10.17 200 (Ю) 5{11}  н/о  слаб. ливневой дождь  9/9 600 м кучево-дожд. 
[Cb cap]
+6 +2.2 77 +4  1009.1  -2.8  736  290           
00 21.10.17 230 (ЮЗ) 6-10{11}  н/о  в посл. час ливневой дождь  6/6 600 м кучево-дожд. 
[Cb cap]
+5.2 +3.7 90 +3  1009  -0.2  736  290  +4.8      влажная 
03 21.10.17 230 (ЮЗ) 6-10{10}  20000 м    3/3 600 м 
[Sc]
+5.5 +2.4 80 +3  1010.4  1.4  737  291  +4.4         
06 21.10.17 230 (ЮЗ) 4{12}  20000 м    9/6 600 м средняя 
[Sc|Ac trans]
+6.9 +1.8 70 +6  1010.6  0.3  737  289           
09 21.10.17 230 (ЮЗ) 3{11}  4000 м  слаб. ливневой дождь  10/10 600 м кучево-дожд. 
[Cb cap]
+4.2 +3.1 93 +3  1010.4  -0.4  737  292           
12 21.10.17 200 (Ю) н/о  слаб. ливневой дождь  9/9 600 м кучево-дожд. 
[Cb cap]
+4.1 +3.3 95 +3  1009.5  -0.9  736  292    +7.9     
15 21.10.17 230 (ЮЗ) 3{10}  н/о  {ливн. осадки}  8/8 600 м кучево-дожд. 
[Cb cap]
+3.2 +2.5 95 +2  1010.9  1.2  737  293           
18 21.10.17 210 (ЮЗ) н/о  {ливн. осадки}  10/10 600 м 
[Sc]
+3.8 +2.8 93 +3  1011.1  0.3  737  292           
21 21.10.17 220 (ЮЗ) н/о    8/8 600 м 
[Sc]
+4 +3 93 +3  1011.7  0.6  738  292           
00 22.10.17 190 (Ю) н/о  слаб. ливневой дождь  10/10 600 м кучево-дожд. 
[Cb cap]
+4.2 +3.6 96 +4  1010.3  -1.3  737  292  +3    0.0    влажная 
03 22.10.17 220 (ЮЗ) 4000 м  слаб. ливневой дождь  10/10 600 м кучево-дожд. 
[Cb cap]
+4.4 +4.1 98 +5  1009.6  -0.7  736  291           
Время (UTC), дата Ветер
(°,м/с) 
Видим.   Явления Облачность Т
(°С)
Тd
(°С)
f(%) Тe
(°С)
Pmin
(гПа)
dP
(гПа)
Po
(мм)
O2
(г/м3)
Тmin Tmax R s Состояние
почвы

Для получения пояснительной информации подведите курсор к названию столбца.

ПОГОДА Большой Улуй - архив

Всё, что Вы хотите узнать о погоде Большой Улуй - удобно и подробно!

Выберите нужную дату (начиная с 1 января 2015* года) и нажмите кнопку "Найти".
Будут отображены архивные сводки погоды по пункту Большой Улуй, начиная с указанной даты.


Отображать данные в формате CSV (для использования в таблицах Excel)


Внимание! Наш архив погоды предназначен исключительно для личного некоммерческого использования в познавательных целях. Если Вам необходимы официальные справки о состоянии погоды (для производственных, юридических, коммерческих и т.п. целей), обращайтесь в органы Росгидромета.

*Примечание: данная дата относится к архиву по метеостанциям СССР (Россия, СНГ, Балтия).
Архив по метеостанциям Зарубежной Европы и Азии (кроме Китая) хранится 10 дней, по другим регионам земного шара (Китай, Африка, Америка, Австралия, Океания) - 1 день.

Большой Улуй - район местоположения метеостанции


Название, широта, долгота, высота метеостанции:
Большой Улуй 56.6°ш. 90.6°д. 231 м над ур. моря [Российская Федерация]

Дополнительная информация

В oтличие oт бoльшинства пoгoдных сайтoв мы публикуем пoдрoбную метеoинфoрмацию в детальнoм прoфессиoнальнoм фoрмате.

Характеристики температуры и влажнoсти вoздуха измеряются на высoте 2 м в тени вдали oт зданий и деревьев.
Скoрoсть ветра измеряется на высoте 10 м (на урoвне рoста челoвека скoрoсть ветра ниже в 1.5-2 раза). Если метеoстанция нахoдится в гoрoде или в лесу, тo скoрoсть ветра занижена на 2-4 м/с пo сравнению с oткрытым местoм. Скoрoсть ветра над акватoриями крупных рек и oзёр, а также на вершинах хoлмoв на 2-5 м/с выше, чем в oбычных услoвиях.
Атмoсфернoе давление в разных тoчках местнoсти мoжет значительнo oтличаться oт давления на метеoстанции, в зависимoсти oт услoвий рельефа (при пoдъёме на 10 м давление пoнижается примернo на 1 мм рт.ст.).